Time,TemperatureF,DewpointF,PressureIn,WindDirection,WindDirectionDegrees,WindSpeedMPH,WindSpeedGustMPH,Humidity,HourlyPrecipIn,Conditions,Clouds,dailyrainin,SoftwareType,DateUTC
2013-04-03 00:00:00,27.8,22.1,30.08,East,80,0.0,0.0,79,0.00,,,0.00,Wunderground v.1.15,2013-04-03 06:00:00,
2013-04-03 00:05:00,27.7,22.0,30.08,East,80,0.0,0.0,79,0.00,,,0.00,Wunderground v.1.15,2013-04-03 06:05:00,
2013-04-03 00:15:00,27.5,21.8,30.08,East,80,0.0,0.0,79,0.00,,,0.00,Wunderground v.1.15,2013-04-03 06:15:00,
2013-04-03 00:24:00,27.3,21.9,30.08,East,80,0.0,0.0,80,0.00,,,0.00,Wunderground v.1.15,2013-04-03 06:24:00,
2013-04-03 00:30:00,27.3,21.9,30.08,East,80,0.0,0.0,80,0.00,,,0.00,Wunderground v.1.15,2013-04-03 06:30:00,
2013-04-03 00:39:00,27.2,21.8,30.08,East,80,0.0,0.0,80,0.00,,,0.00,Wunderground v.1.15,2013-04-03 06:39:00,
2013-04-03 00:45:00,27.1,21.7,30.09,East,80,0.0,0.0,80,0.00,,,0.00,Wunderground v.1.15,2013-04-03 06:45:00,
2013-04-03 00:50:00,27.0,21.7,30.09,East,80,0.0,0.0,80,0.00,,,0.00,Wunderground v.1.15,2013-04-03 06:50:00,
2013-04-03 01:00:00,26.9,21.8,30.09,East,80,0.0,0.0,81,0.00,,,0.00,Wunderground v.1.15,2013-04-03 07:00:00,
2013-04-03 01:05:00,26.8,21.8,30.09,East,80,0.0,0.0,81,0.00,,,0.00,Wunderground v.1.15,2013-04-03 07:05:00,
2013-04-03 01:10:00,26.8,21.8,30.09,East,80,0.0,0.0,81,0.00,,,0.00,Wunderground v.1.15,2013-04-03 07:10:00,
2013-04-03 01:15:00,26.8,22.0,30.09,East,80,0.0,0.0,82,0.00,,,0.00,Wunderground v.1.15,2013-04-03 07:15:00,
2013-04-03 01:25:00,26.6,21.6,30.09,East,80,0.0,0.0,81,0.00,,,0.00,Wunderground v.1.15,2013-04-03 07:25:00,
2013-04-03 01:30:00,26.5,21.5,30.09,East,80,0.0,0.0,81,0.00,,,0.00,Wunderground v.1.15,2013-04-03 07:30:00,
2013-04-03 01:35:00,26.4,21.4,30.09,East,80,0.0,0.0,81,0.00,,,0.00,Wunderground v.1.15,2013-04-03 07:35:00,
2013-04-03 01:39:00,26.3,21.3,30.09,East,80,0.0,0.0,81,0.00,,,0.00,Wunderground v.1.15,2013-04-03 07:39:00,
2013-04-03 01:45:00,26.2,21.5,30.09,East,80,0.0,0.0,82,0.00,,,0.00,Wunderground v.1.15,2013-04-03 07:45:00,
2013-04-03 01:50:00,26.2,21.5,30.09,East,80,0.0,0.0,82,0.00,,,0.00,Wunderground v.1.15,2013-04-03 07:50:00,
2013-04-03 01:55:00,26.1,21.4,30.09,East,80,0.0,0.0,82,0.00,,,0.00,Wunderground v.1.15,2013-04-03 07:55:00,
2013-04-03 02:00:00,25.9,20.9,30.09,East,80,0.0,0.0,81,0.00,,,0.00,Wunderground v.1.15,2013-04-03 08:00:00,
2013-04-03 02:05:00,25.8,21.1,30.09,East,80,0.0,0.0,82,0.00,,,0.00,Wunderground v.1.15,2013-04-03 08:05:00,
2013-04-03 02:10:00,25.8,21.1,30.09,East,80,0.0,0.0,82,0.00,,,0.00,Wunderground v.1.15,2013-04-03 08:10:00,
2013-04-03 02:15:00,25.7,21.0,30.09,East,80,0.0,0.0,82,0.00,,,0.00,Wunderground v.1.15,2013-04-03 08:15:00,
2013-04-03 02:25:00,25.5,20.8,30.10,East,80,0.0,0.0,82,0.00,,,0.00,Wunderground v.1.15,2013-04-03 08:25:00,
2013-04-03 02:35:00,25.3,20.6,30.09,East,80,0.0,0.0,82,0.00,,,0.00,Wunderground v.1.15,2013-04-03 08:35:00,
2013-04-03 02:39:00,25.2,20.5,30.09,East,80,0.0,0.0,82,0.00,,,0.00,Wunderground v.1.15,2013-04-03 08:39:00,
2013-04-03 02:44:00,25.1,20.4,30.09,East,80,0.0,0.0,82,0.00,,,0.00,Wunderground v.1.15,2013-04-03 08:44:00,
2013-04-03 02:50:00,25.0,20.6,30.09,East,80,0.0,0.0,83,0.00,,,0.00,Wunderground v.1.15,2013-04-03 08:50:00,
2013-04-03 02:55:00,24.9,20.5,30.10,East,80,0.0,0.0,83,0.00,,,0.00,Wunderground v.1.15,2013-04-03 08:55:00,
2013-04-03 03:00:00,24.8,20.4,30.10,East,80,0.0,0.0,83,0.00,,,0.00,Wunderground v.1.15,2013-04-03 09:00:00,
2013-04-03 03:10:00,24.7,20.3,30.11,East,80,0.0,0.0,83,0.00,,,0.00,Wunderground v.1.15,2013-04-03 09:10:00,
2013-04-03 03:15:00,24.6,20.2,30.11,East,80,0.0,0.0,83,0.00,,,0.00,Wunderground v.1.15,2013-04-03 09:15:00,
2013-04-03 03:25:00,24.3,19.9,30.11,East,80,0.0,0.0,83,0.00,,,0.00,Wunderground v.1.15,2013-04-03 09:25:00,
2013-04-03 03:30:00,24.3,20.2,30.11,East,80,0.0,0.0,84,0.00,,,0.00,Wunderground v.1.15,2013-04-03 09:30:00,
2013-04-03 03:35:00,24.2,20.1,30.11,East,80,0.0,0.0,84,0.00,,,0.00,Wunderground v.1.15,2013-04-03 09:35:00,
2013-04-03 03:40:00,24.1,19.7,30.11,East,80,0.0,0.0,83,0.00,,,0.00,Wunderground v.1.15,2013-04-03 09:40:00,
2013-04-03 03:45:00,24.0,19.9,30.10,East,80,0.0,0.0,84,0.00,,,0.00,Wunderground v.1.15,2013-04-03 09:45:00,
2013-04-03 03:50:00,23.9,19.8,30.11,East,80,0.0,0.0,84,0.00,,,0.00,Wunderground v.1.15,2013-04-03 09:50:00,
2013-04-03 03:55:00,23.8,19.7,30.11,East,80,0.0,0.0,84,0.00,,,0.00,Wunderground v.1.15,2013-04-03 09:55:00,
2013-04-03 04:00:00,23.8,19.9,30.11,East,80,0.0,0.0,85,0.00,,,0.00,Wunderground v.1.15,2013-04-03 10:00:00,
2013-04-03 04:05:00,23.7,19.6,30.11,East,80,0.0,0.0,84,0.00,,,0.00,Wunderground v.1.15,2013-04-03 10:05:00,
2013-04-03 04:10:00,23.6,19.5,30.11,East,80,0.0,0.0,84,0.00,,,0.00,Wunderground v.1.15,2013-04-03 10:10:00,
2013-04-03 04:15:00,23.6,19.5,30.12,East,80,0.0,1.0,84,0.00,,,0.00,Wunderground v.1.15,2013-04-03 10:15:00,
2013-04-03 04:25:00,23.5,19.4,30.13,East,80,0.0,1.0,84,0.00,,,0.00,Wunderground v.1.15,2013-04-03 10:25:00,
2013-04-03 04:30:00,23.4,19.3,30.13,East,80,0.0,1.0,84,0.00,,,0.00,Wunderground v.1.15,2013-04-03 10:30:00,
2013-04-03 04:35:00,23.3,19.2,30.14,East,80,0.0,1.0,84,0.00,,,0.00,Wunderground v.1.15,2013-04-03 10:35:00,
2013-04-03 04:40:00,23.2,19.1,30.14,East,80,0.0,1.0,84,0.00,,,0.00,Wunderground v.1.15,2013-04-03 10:40:00,
2013-04-03 04:50:00,23.0,18.9,30.14,East,80,0.0,1.0,84,0.00,,,0.00,Wunderground v.1.15,2013-04-03 10:50:00,
2013-04-03 05:00:00,22.8,19.0,30.14,East,80,0.0,1.0,85,0.00,,,0.00,Wunderground v.1.15,2013-04-03 11:00:00,
2013-04-03 05:10:00,22.6,18.8,30.15,East,80,0.0,1.0,85,0.00,,,0.00,Wunderground v.1.15,2013-04-03 11:10:00,
2013-04-03 05:15:00,22.5,18.7,30.15,East,80,0.0,1.0,85,0.00,,,0.00,Wunderground v.1.15,2013-04-03 11:15:00,
2013-04-03 05:25:00,22.4,18.6,30.16,East,80,0.0,0.0,85,0.00,,,0.00,Wunderground v.1.15,2013-04-03 11:25:00,
2013-04-03 05:30:00,22.4,18.6,30.15,East,80,0.0,0.0,85,0.00,,,0.00,Wunderground v.1.15,2013-04-03 11:30:00,
2013-04-03 05:35:00,22.3,18.5,30.16,East,80,0.0,0.0,85,0.00,,,0.00,Wunderground v.1.15,2013-04-03 11:35:00,
2013-04-03 05:40:00,22.2,18.4,30.16,East,80,0.0,0.0,85,0.00,,,0.00,Wunderground v.1.15,2013-04-03 11:40:00,
2013-04-03 05:45:00,22.2,18.4,30.16,East,80,0.0,0.0,85,0.00,,,0.00,Wunderground v.1.15,2013-04-03 11:45:00,
2013-04-03 05:50:00,22.1,18.3,30.17,East,80,0.0,0.0,85,0.00,,,0.00,Wunderground v.1.15,2013-04-03 11:50:00,
2013-04-03 05:54:00,22.1,18.3,30.17,East,80,0.0,0.0,85,0.00,,,0.00,Wunderground v.1.15,2013-04-03 11:54:00,
2013-04-03 06:00:00,22.1,18.6,30.16,East,80,0.0,0.0,86,0.00,,,0.00,Wunderground v.1.15,2013-04-03 12:00:00,
2013-04-03 06:10:00,22.0,18.2,30.17,East,80,0.0,0.0,85,0.00,,,0.00,Wunderground v.1.15,2013-04-03 12:10:00,
2013-04-03 06:15:00,22.0,18.2,30.17,East,80,0.0,0.0,85,0.00,,,0.00,Wunderground v.1.15,2013-04-03 12:15:00,
2013-04-03 06:25:00,21.9,18.4,30.17,East,80,0.0,0.0,86,0.00,,,0.00,Wunderground v.1.15,2013-04-03 12:25:00,
2013-04-03 06:35:00,21.8,18.3,30.17,East,80,0.0,0.0,86,0.00,,,0.00,Wunderground v.1.15,2013-04-03 12:35:00,
2013-04-03 06:40:00,21.8,18.3,30.17,East,80,0.0,0.0,86,0.00,,,0.00,Wunderground v.1.15,2013-04-03 12:40:00,
2013-04-03 06:45:00,21.9,18.4,30.17,East,80,0.0,0.0,86,0.00,,,0.00,Wunderground v.1.15,2013-04-03 12:45:00,
2013-04-03 06:54:00,21.7,18.2,30.17,East,80,0.0,0.0,86,0.00,,,0.00,Wunderground v.1.15,2013-04-03 12:54:00,
2013-04-03 07:00:00,21.7,18.2,30.17,East,80,0.0,0.0,86,0.00,,,0.00,Wunderground v.1.15,2013-04-03 13:00:00,
2013-04-03 07:05:00,21.7,18.2,30.17,East,80,0.0,0.0,86,0.00,,,0.00,Wunderground v.1.15,2013-04-03 13:05:00,
2013-04-03 07:10:00,21.7,18.2,30.17,East,80,0.0,0.0,86,0.00,,,0.00,Wunderground v.1.15,2013-04-03 13:10:00,
2013-04-03 07:15:00,21.7,18.2,30.17,East,80,0.0,0.0,86,0.00,,,0.00,Wunderground v.1.15,2013-04-03 13:15:00,
2013-04-03 07:25:00,21.7,18.4,30.18,East,80,0.0,0.0,87,0.00,,,0.00,Wunderground v.1.15,2013-04-03 13:25:00,
2013-04-03 07:35:00,21.8,18.5,30.18,East,80,0.0,0.0,87,0.00,,,0.00,Wunderground v.1.15,2013-04-03 13:35:00,
2013-04-03 07:40:00,21.9,18.4,30.18,East,80,0.0,0.0,86,0.00,,,0.00,Wunderground v.1.15,2013-04-03 13:40:00,
2013-04-03 07:44:00,21.9,18.4,30.19,East,80,0.0,0.0,86,0.00,,,0.00,Wunderground v.1.15,2013-04-03 13:44:00,
2013-04-03 07:49:00,21.9,18.4,30.19,East,80,0.0,0.0,86,0.00,,,0.00,Wunderground v.1.15,2013-04-03 13:49:00,
2013-04-03 08:00:00,22.0,18.7,30.19,East,80,0.0,0.0,87,0.00,,,0.00,Wunderground v.1.15,2013-04-03 14:00:00,
2013-04-03 08:05:00,22.2,18.9,30.19,East,80,0.0,0.0,87,0.00,,,0.00,Wunderground v.1.15,2013-04-03 14:05:00,
2013-04-03 08:15:00,22.8,19.8,30.19,East,80,0.0,0.0,88,0.00,,,0.00,Wunderground v.1.15,2013-04-03 14:15:00,
2013-04-03 08:25:00,23.4,20.1,30.19,East,80,0.0,0.0,87,0.00,,,0.00,Wunderground v.1.15,2013-04-03 14:25:00,
2013-04-03 08:34:00,24.2,21.2,30.19,East,80,0.0,0.0,88,0.00,,,0.00,Wunderground v.1.15,2013-04-03 14:34:00,
2013-04-03 08:39:00,24.6,21.6,30.19,East,80,0.0,0.0,88,0.00,,,0.00,Wunderground v.1.15,2013-04-03 14:39:00,
2013-04-03 08:44:00,25.2,22.1,30.19,East,80,0.0,0.0,88,0.00,,,0.00,Wunderground v.1.15,2013-04-03 14:44:00,
2013-04-03 08:50:00,25.8,22.2,30.19,East,80,0.0,0.0,86,0.00,,,0.00,Wunderground v.1.15,2013-04-03 14:50:00,
2013-04-03 08:55:00,26.6,22.7,30.19,East,80,0.0,0.0,85,0.00,,,0.00,Wunderground v.1.15,2013-04-03 14:55:00,
2013-04-03 09:00:00,27.5,21.5,30.19,East,80,0.0,0.0,78,0.00,,,0.00,Wunderground v.1.15,2013-04-03 15:00:00,
2013-04-03 09:10:00,30.7,22.1,30.19,East,80,0.0,2.0,70,0.00,,,0.00,Wunderground v.1.15,2013-04-03 15:10:00,
2013-04-03 09:15:00,32.6,21.8,30.19,East,80,0.0,2.0,64,0.00,,,0.00,Wunderground v.1.15,2013-04-03 15:15:00,
2013-04-03 09:25:00,35.3,22.4,30.19,South,187,0.0,0.0,59,0.00,,,0.00,Wunderground v.1.15,2013-04-03 15:25:00,
2013-04-03 09:30:00,37.2,22.5,30.19,South,187,0.0,0.0,55,0.00,,,0.00,Wunderground v.1.15,2013-04-03 15:30:00,
2013-04-03 09:39:00,39.4,22.8,30.19,South,177,0.0,1.0,51,0.00,,,0.00,Wunderground v.1.15,2013-04-03 15:39:00,
2013-04-03 09:44:00,40.1,22.4,30.19,South,177,0.0,1.0,49,0.00,,,0.00,Wunderground v.1.15,2013-04-03 15:44:00,
2013-04-03 09:49:00,40.2,21.6,30.19,South,189,1.0,1.0,47,0.00,,,0.00,Wunderground v.1.15,2013-04-03 15:49:00,
2013-04-03 09:55:00,40.9,21.7,30.19,South,189,0.0,1.0,46,0.00,,,0.00,Wunderground v.1.15,2013-04-03 15:55:00,
2013-04-03 10:00:00,41.1,21.3,30.19,South,189,0.0,0.0,45,0.00,,,0.00,Wunderground v.1.15,2013-04-03 16:00:00,
2013-04-03 10:15:00,41.9,21.5,30.18,SSE,164,1.0,3.0,44,0.00,,,0.00,Wunderground v.1.15,2013-04-03 16:15:00,
2013-04-03 10:25:00,42.9,22.5,30.18,SSE,164,0.0,3.0,44,0.00,,,0.00,Wunderground v.1.15,2013-04-03 16:25:00,
2013-04-03 10:35:00,45.0,21.5,30.17,SSE,168,0.0,3.0,39,0.00,,,0.00,Wunderground v.1.15,2013-04-03 16:35:00,
2013-04-03 10:44:00,45.9,21.1,30.17,South,180,1.0,3.0,37,0.00,,,0.00,Wunderground v.1.15,2013-04-03 16:44:00,
2013-04-03 10:49:00,46.9,21.3,30.17,SE,136,1.0,3.0,36,0.00,,,0.00,Wunderground v.1.15,2013-04-03 16:49:00,
2013-04-03 10:55:00,47.6,22.6,30.17,SE,136,1.0,3.0,37,0.00,,,0.00,Wunderground v.1.15,2013-04-03 16:55:00,
2013-04-03 11:05:00,48.8,21.6,30.17,SE,146,1.0,3.0,34,0.00,,,0.00,Wunderground v.1.15,2013-04-03 17:05:00,
2013-04-03 11:10:00,49.4,21.5,30.17,SSE,153,1.0,3.0,33,0.00,,,0.00,Wunderground v.1.15,2013-04-03 17:10:00,
2013-04-03 11:20:00,50.4,21.6,30.17,SSW,193,1.0,5.0,32,0.00,,,0.00,Wunderground v.1.15,2013-04-03 17:20:00,
2013-04-03 11:25:00,50.4,21.6,30.17,ESE,121,1.0,5.0,32,0.00,,,0.00,Wunderground v.1.15,2013-04-03 17:25:00,
2013-04-03 11:30:00,49.9,20.4,30.17,SSW,198,2.0,2.0,31,0.00,,,0.00,Wunderground v.1.15,2013-04-03 17:30:00,
2013-04-03 11:40:00,51.2,22.3,30.17,East,84,1.0,5.0,32,0.00,,,0.00,Wunderground v.1.15,2013-04-03 17:40:00,
2013-04-03 11:45:00,50.7,22.6,30.16,East,88,2.0,5.0,33,0.00,,,0.00,Wunderground v.1.15,2013-04-03 17:45:00,
2013-04-03 11:55:00,50.4,23.1,30.16,East,93,2.0,5.0,34,0.00,,,0.00,Wunderground v.1.15,2013-04-03 17:55:00,
2013-04-03 12:05:00,50.7,24.0,30.16,East,89,3.0,5.0,35,0.00,,,0.00,Wunderground v.1.15,2013-04-03 18:05:00,
2013-04-03 12:10:00,50.4,24.4,30.16,East,91,3.0,5.0,36,0.00,,,0.00,Wunderground v.1.15,2013-04-03 18:10:00,
2013-04-03 12:15:00,50.6,26.5,30.16,East,82,2.0,5.0,39,0.00,,,0.00,Wunderground v.1.15,2013-04-03 18:15:00,
2013-04-03 12:25:00,51.3,26.5,30.15,East,92,2.0,5.0,38,0.00,,,0.00,Wunderground v.1.15,2013-04-03 18:25:00,
2013-04-03 12:35:00,51.4,25.3,30.15,East,96,2.0,5.0,36,0.00,,,0.00,Wunderground v.1.15,2013-04-03 18:35:00,
2013-04-03 12:45:00,51.5,27.3,30.15,South,182,2.0,5.0,39,0.00,,,0.00,Wunderground v.1.15,2013-04-03 18:45:00,
2013-04-03 12:50:00,51.9,28.3,30.15,ESE,103,2.0,5.0,40,0.00,,,0.00,Wunderground v.1.15,2013-04-03 18:50:00,
2013-04-03 12:55:00,52.4,27.5,30.14,ESE,118,2.0,5.0,38,0.00,,,0.00,Wunderground v.1.15,2013-04-03 18:55:00,
2013-04-03 13:05:00,53.2,26.9,30.14,SE,126,2.0,5.0,36,0.00,,,0.00,Wunderground v.1.15,2013-04-03 19:05:00,
2013-04-03 13:10:00,53.3,27.7,30.14,East,96,2.0,5.0,37,0.00,,,0.00,Wunderground v.1.15,2013-04-03 19:10:00,
2013-04-03 13:15:00,53.0,28.0,30.14,East,92,2.0,5.0,38,0.00,,,0.00,Wunderground v.1.15,2013-04-03 19:15:00,
2013-04-03 13:25:00,53.8,27.4,30.14,ESE,107,2.0,5.0,36,0.00,,,0.00,Wunderground v.1.15,2013-04-03 19:25:00,
2013-04-03 13:35:00,54.6,27.5,30.14,ENE,75,2.0,5.0,35,0.00,,,0.00,Wunderground v.1.15,2013-04-03 19:35:00,
2013-04-03 13:40:00,54.4,25.9,30.14,East,88,2.0,5.0,33,0.00,,,0.00,Wunderground v.1.15,2013-04-03 19:40:00,
2013-04-03 13:50:00,54.6,26.0,30.13,East,90,2.0,2.0,33,0.00,,,0.00,Wunderground v.1.15,2013-04-03 19:50:00,
2013-04-03 13:55:00,54.8,26.2,30.13,East,83,2.0,5.0,33,0.00,,,0.00,Wunderground v.1.15,2013-04-03 19:55:00,
2013-04-03 14:05:00,55.9,26.4,30.12,South,183,1.0,5.0,32,0.00,,,0.00,Wunderground v.1.15,2013-04-03 20:05:00,
2013-04-03 14:10:00,56.5,26.2,30.13,South,182,1.0,5.0,31,0.00,,,0.00,Wunderground v.1.15,2013-04-03 20:10:00,
2013-04-03 14:15:00,57.1,25.1,30.12,South,174,1.0,5.0,29,0.00,,,0.00,Wunderground v.1.15,2013-04-03 20:15:00,
2013-04-03 14:25:00,56.5,26.2,30.13,East,91,2.0,5.0,31,0.00,,,0.00,Wunderground v.1.15,2013-04-03 20:25:00,
2013-04-03 14:30:00,56.0,25.8,30.12,East,90,2.0,5.0,31,0.00,,,0.00,Wunderground v.1.15,2013-04-03 20:30:00,
2013-04-03 14:35:00,55.8,26.3,30.12,East,94,2.0,5.0,32,0.00,,,0.00,Wunderground v.1.15,2013-04-03 20:35:00,
2013-04-03 14:40:00,55.8,26.3,30.12,East,95,2.0,2.0,32,0.00,,,0.00,Wunderground v.1.15,2013-04-03 20:40:00,
2013-04-03 14:45:00,55.6,26.9,30.12,ESE,111,2.0,5.0,33,0.00,,,0.00,Wunderground v.1.15,2013-04-03 20:45:00,
2013-04-03 14:50:00,55.1,25.7,30.11,East,98,2.0,5.0,32,0.00,,,0.00,Wunderground v.1.15,2013-04-03 20:50:00,
2013-04-03 14:55:00,55.0,25.6,30.12,SSW,196,2.0,5.0,32,0.00,,,0.00,Wunderground v.1.15,2013-04-03 20:55:00,
2013-04-03 15:05:00,55.8,26.3,30.11,SSW,202,1.0,5.0,32,0.00,,,0.00,Wunderground v.1.15,2013-04-03 21:05:00,
2013-04-03 15:15:00,56.6,25.5,30.11,ESE,103,1.0,3.0,30,0.00,,,0.00,Wunderground v.1.15,2013-04-03 21:15:00,
2013-04-03 15:25:00,55.9,26.4,30.11,SSE,166,2.0,6.0,32,0.00,,,0.00,Wunderground v.1.15,2013-04-03 21:25:00,
2013-04-03 15:30:00,55.6,25.4,30.11,East,86,1.0,6.0,31,0.00,,,0.00,Wunderground v.1.15,2013-04-03 21:30:00,
2013-04-03 15:35:00,55.4,26.0,30.11,East,99,2.0,6.0,32,0.00,,,0.00,Wunderground v.1.15,2013-04-03 21:35:00,
2013-04-03 15:40:00,55.3,24.4,30.11,SE,126,2.0,2.0,30,0.00,,,0.00,Wunderground v.1.15,2013-04-03 21:40:00,
2013-04-03 15:45:00,55.8,27.1,30.11,SE,132,2.0,6.0,33,0.00,,,0.00,Wunderground v.1.15,2013-04-03 21:45:00,
2013-04-03 15:50:00,55.9,25.7,30.11,South,175,1.0,6.0,31,0.00,,,0.00,Wunderground v.1.15,2013-04-03 21:50:00,
2013-04-03 16:00:00,55.8,26.3,30.10,SSE,150,2.0,6.0,32,0.00,,,0.00,Wunderground v.1.15,2013-04-03 22:00:00,
2013-04-03 16:10:00,55.7,25.5,30.10,SSE,166,2.0,6.0,31,0.00,,,0.00,Wunderground v.1.15,2013-04-03 22:10:00,
2013-04-03 16:15:00,55.6,24.6,30.10,ENE,66,1.0,6.0,30,0.00,,,0.00,Wunderground v.1.15,2013-04-03 22:15:00,
2013-04-03 16:25:00,55.0,25.6,30.10,East,98,1.0,6.0,32,0.00,,,0.00,Wunderground v.1.15,2013-04-03 22:25:00,
2013-04-03 16:30:00,55.0,24.1,30.10,East,98,2.0,2.0,30,0.00,,,0.00,Wunderground v.1.15,2013-04-03 22:30:00,
2013-04-03 16:40:00,55.9,20.5,30.09,SSW,204,1.0,6.0,25,0.00,,,0.00,Wunderground v.1.15,2013-04-03 22:40:00,
2013-04-03 16:44:00,56.2,23.5,30.09,SSW,192,1.0,6.0,28,0.00,,,0.00,Wunderground v.1.15,2013-04-03 22:44:00,
2013-04-03 16:49:00,56.4,26.1,30.09,SSE,148,1.0,1.0,31,0.00,,,0.00,Wunderground v.1.15,2013-04-03 22:49:00,
2013-04-03 16:54:00,56.5,19.1,30.10,SW,223,1.0,4.0,23,0.00,,,0.00,Wunderground v.1.15,2013-04-03 22:54:00,
2013-04-03 17:00:00,56.3,16.8,30.10,SSW,212,1.0,6.0,21,0.00,,,0.00,Wunderground v.1.15,2013-04-03 23:00:00,
2013-04-03 17:05:00,56.3,16.8,30.10,SE,126,1.0,6.0,21,0.00,,,0.00,Wunderground v.1.15,2013-04-03 23:05:00,
2013-04-03 17:15:00,56.0,16.6,30.10,SW,221,1.0,5.0,21,0.00,,,0.00,Wunderground v.1.15,2013-04-03 23:15:00,
2013-04-03 17:25:00,55.5,15.0,30.10,West,261,1.0,5.0,20,0.00,,,0.00,Wunderground v.1.15,2013-04-03 23:25:00,
2013-04-03 17:35:00,55.0,14.6,30.11,South,188,1.0,5.0,20,0.00,,,0.00,Wunderground v.1.15,2013-04-03 23:35:00,
2013-04-03 17:44:00,54.5,11.8,30.11,SSW,208,1.0,5.0,18,0.00,,,0.00,Wunderground v.1.15,2013-04-03 23:44:00,
2013-04-03 17:49:00,54.2,15.1,30.11,SW,214,1.0,5.0,21,0.00,,,0.00,Wunderground v.1.15,2013-04-03 23:49:00,
2013-04-03 17:55:00,54.0,16.0,30.11,WSW,244,1.0,5.0,22,0.00,,,0.00,Wunderground v.1.15,2013-04-03 23:55:00,
2013-04-03 18:05:00,53.2,17.3,30.11,South,179,0.0,5.0,24,0.00,,,0.00,Wunderground v.1.15,2013-04-04 00:05:00,
2013-04-03 18:15:00,52.4,18.5,30.11,South,179,0.0,5.0,26,0.00,,,0.00,Wunderground v.1.15,2013-04-04 00:15:00,
2013-04-03 18:25:00,51.1,19.9,30.12,South,179,0.0,4.0,29,0.00,,,0.00,Wunderground v.1.15,2013-04-04 00:25:00,
2013-04-03 18:30:00,50.4,18.5,30.12,South,179,0.0,4.0,28,0.00,,,0.00,Wunderground v.1.15,2013-04-04 00:30:00,
2013-04-03 18:40:00,49.2,16.6,30.12,South,179,0.0,4.0,27,0.00,,,0.00,Wunderground v.1.15,2013-04-04 00:40:00,
2013-04-03 18:50:00,48.5,16.8,30.13,South,179,0.0,4.0,28,0.00,,,0.00,Wunderground v.1.15,2013-04-04 00:50:00,
2013-04-03 18:55:00,47.9,17.9,30.13,South,179,0.0,4.0,30,0.00,,,0.00,Wunderground v.1.15,2013-04-04 00:55:00,
2013-04-03 19:00:00,47.4,16.7,30.13,South,179,0.0,4.0,29,0.00,,,0.00,Wunderground v.1.15,2013-04-04 01:00:00,
2013-04-03 19:05:00,47.0,20.7,30.13,South,179,0.0,4.0,35,0.00,,,0.00,Wunderground v.1.15,2013-04-04 01:05:00,
2013-04-03 19:15:00,45.5,20.7,30.13,South,179,0.0,4.0,37,0.00,,,0.00,Wunderground v.1.15,2013-04-04 01:15:00,
2013-04-03 19:30:00,43.6,21.4,30.14,South,179,0.0,1.0,41,0.00,,,0.00,Wunderground v.1.15,2013-04-04 01:30:00,
2013-04-03 19:34:00,43.1,21.0,30.14,South,179,0.0,1.0,41,0.00,,,0.00,Wunderground v.1.15,2013-04-04 01:34:00,
2013-04-03 19:39:00,42.7,20.6,30.14,South,179,0.0,1.0,41,0.00,,,0.00,Wunderground v.1.15,2013-04-04 01:39:00,
2013-04-03 19:49:00,42.7,20.6,30.15,South,179,0.0,1.0,41,0.00,,,0.00,Wunderground v.1.15,2013-04-04 01:49:00,
2013-04-03 19:55:00,42.4,20.9,30.15,South,179,0.0,1.0,42,0.00,,,0.00,Wunderground v.1.15,2013-04-04 01:55:00,
2013-04-03 20:00:00,42.1,19.5,30.15,South,179,0.0,1.0,40,0.00,,,0.00,Wunderground v.1.15,2013-04-04 02:00:00,
2013-04-03 20:05:00,42.0,18.8,30.15,South,179,0.0,1.0,39,0.00,,,0.00,Wunderground v.1.15,2013-04-04 02:05:00,
2013-04-03 20:10:00,42.1,18.3,30.15,South,179,0.0,1.0,38,0.00,,,0.00,Wunderground v.1.15,2013-04-04 02:10:00,
2013-04-03 20:15:00,42.1,17.7,30.16,South,179,0.0,1.0,37,0.00,,,0.00,Wunderground v.1.15,2013-04-04 02:15:00,
2013-04-03 20:25:00,41.9,18.7,30.16,South,179,0.0,1.0,39,0.00,,,0.00,Wunderground v.1.15,2013-04-04 02:25:00,
2013-04-03 20:30:00,41.6,17.8,30.17,South,179,0.0,1.0,38,0.00,,,0.00,Wunderground v.1.15,2013-04-04 02:30:00,
2013-04-03 20:35:00,41.5,19.5,30.17,South,179,0.0,1.0,41,0.00,,,0.00,Wunderground v.1.15,2013-04-04 02:35:00,
2013-04-03 20:45:00,40.9,21.2,30.18,South,179,0.0,1.0,45,0.00,,,0.00,Wunderground v.1.15,2013-04-04 02:45:00,
2013-04-03 20:50:00,40.6,19.8,30.18,South,185,0.0,1.0,43,0.00,,,0.00,Wunderground v.1.15,2013-04-04 02:50:00,
2013-04-03 20:55:00,40.4,18.5,30.19,South,185,0.0,1.0,41,0.00,,,0.00,Wunderground v.1.15,2013-04-04 02:55:00,
2013-04-03 21:05:00,39.9,16.3,30.19,South,185,0.0,1.0,38,0.00,,,0.00,Wunderground v.1.15,2013-04-04 03:05:00,
2013-04-03 21:10:00,39.7,19.5,30.19,South,185,0.0,1.0,44,0.00,,,0.00,Wunderground v.1.15,2013-04-04 03:10:00,
2013-04-03 21:15:00,39.3,16.4,30.20,South,185,0.0,2.0,39,0.00,,,0.00,Wunderground v.1.15,2013-04-04 03:15:00,
2013-04-03 21:24:00,38.2,20.7,30.20,South,185,0.0,2.0,49,0.00,,,0.00,Wunderground v.1.15,2013-04-04 03:24:00,
2013-04-03 21:35:00,36.8,17.9,30.20,South,185,0.0,2.0,46,0.00,,,0.00,Wunderground v.1.15,2013-04-04 03:35:00,
2013-04-03 21:40:00,36.5,18.6,30.20,South,185,0.0,2.0,48,0.00,,,0.00,Wunderground v.1.15,2013-04-04 03:40:00,
2013-04-03 21:45:00,36.2,19.3,30.20,South,185,0.0,2.0,50,0.00,,,0.00,Wunderground v.1.15,2013-04-04 03:45:00,
2013-04-03 21:55:00,35.4,20.8,30.21,South,185,0.0,2.0,55,0.00,,,0.00,Wunderground v.1.15,2013-04-04 03:55:00,
2013-04-03 22:00:00,34.9,20.8,30.22,South,185,0.0,2.0,56,0.00,,,0.00,Wunderground v.1.15,2013-04-04 04:00:00,
2013-04-03 22:05:00,34.6,19.6,30.22,South,185,0.0,2.0,54,0.00,,,0.00,Wunderground v.1.15,2013-04-04 04:05:00,
2013-04-03 22:10:00,34.4,18.6,30.22,South,185,0.0,2.0,52,0.00,,,0.00,Wunderground v.1.15,2013-04-04 04:10:00,
2013-04-03 22:15:00,33.8,19.3,30.22,South,185,0.0,2.0,55,0.00,,,0.00,Wunderground v.1.15,2013-04-04 04:15:00,
2013-04-03 22:20:00,33.5,19.0,30.23,South,185,0.0,1.0,55,0.00,,,0.00,Wunderground v.1.15,2013-04-04 04:20:00,
2013-04-03 22:25:00,33.2,20.0,30.23,South,185,0.0,1.0,58,0.00,,,0.00,Wunderground v.1.15,2013-04-04 04:25:00,
2013-04-03 22:34:00,32.7,19.5,30.23,South,185,0.0,1.0,58,0.00,,,0.00,Wunderground v.1.15,2013-04-04 04:34:00,
2013-04-03 22:39:00,32.4,19.7,30.24,South,185,0.0,1.0,59,0.00,,,0.00,Wunderground v.1.15,2013-04-04 04:39:00,
2013-04-03 22:44:00,31.9,20.0,30.24,South,185,0.0,1.0,61,0.00,,,0.00,Wunderground v.1.15,2013-04-04 04:44:00,
2013-04-03 22:49:00,31.6,20.1,30.24,South,185,0.0,1.0,62,0.00,,,0.00,Wunderground v.1.15,2013-04-04 04:49:00,
2013-04-03 22:55:00,31.4,19.1,30.23,South,185,0.0,1.0,60,0.00,,,0.00,Wunderground v.1.15,2013-04-04 04:55:00,
2013-04-03 23:00:00,31.1,18.8,30.24,South,185,0.0,1.0,60,0.00,,,0.00,Wunderground v.1.15,2013-04-04 05:00:00,
2013-04-03 23:10:00,30.5,18.3,30.24,South,185,0.0,1.0,60,0.00,,,0.00,Wunderground v.1.15,2013-04-04 05:10:00,
2013-04-03 23:15:00,30.2,18.7,30.23,South,185,0.0,1.0,62,0.00,,,0.00,Wunderground v.1.15,2013-04-04 05:15:00,
2013-04-03 23:25:00,29.7,18.3,30.24,South,185,0.0,0.0,62,0.00,,,0.00,Wunderground v.1.15,2013-04-04 05:25:00,
2013-04-03 23:30:00,29.6,18.5,30.24,South,185,0.0,0.0,63,0.00,,,0.00,Wunderground v.1.15,2013-04-04 05:30:00,
2013-04-03 23:35:00,29.4,18.3,30.24,South,185,0.0,0.0,63,0.00,,,0.00,Wunderground v.1.15,2013-04-04 05:35:00,
2013-04-03 23:44:00,29.1,18.4,30.24,South,185,0.0,0.0,64,0.00,,,0.00,Wunderground v.1.15,2013-04-04 05:44:00,
2013-04-03 23:49:00,29.0,18.3,30.24,South,185,0.0,0.0,64,0.00,,,0.00,Wunderground v.1.15,2013-04-04 05:49:00,
2013-04-03 23:54:00,28.9,18.2,30.24,South,185,0.0,0.0,64,0.00,,,0.00,Wunderground v.1.15,2013-04-04 05:54:00,
2013-04-03 23:59:00,28.8,18.1,30.24,South,185,0.0,0.0,64,0.00,,,0.00,Wunderground v.1.15,2013-04-04 05:59:00,